Find Starlink 31662

NORAD ID: 59584 Int'l Des: 2024-076 Owner: SPXS Country: US Constellation: starlink operational
LEOCIRCULAR

Aktuelle Ansicht

3D-Globus wird geladen...

Über Starlink 31662

Beschreibung wird geladen...

Nächste Überflüge

Passes for default location (London). Set your location on the main map for personalized predictions.

Höhenverlauf

Loading altitude history...

Zweizeiliger Elementsatz

1 59584U 24076W 26159.46105016 .00001366 00000-0 59179-4 0 9997
2 59584 43.0022 216.4830 0002071 282.6612 77.4008 15.27577472120382
Epoch: 8. Juni 2026 • Age: 13 hours

Aktueller Status

Höhe 486.6 km
Geschwindigkeit 7.63 km/s
Subsatellitenpunkt 39.63°N, 19.32°E
Startdatum 23. Apr. 2024
Alter 2.1 years
Typ internet

Technische Details

Klassifizierung Payload
Masse 730.00 kg
Trockenmasse 700.00 kg
Gesamtmasse 730.00 kg
Länge 0.30 m
Durchmesser 4.10 m
Spannweite 29.00 m
Form Box + pan
Hersteller SPXS
Bus-Typ Starlink V2M
Phasenstatus In Orbit
Besitzer/Staat SPXS/US

Most Searched